Wetbulb
45.33 45.39 45.34 45.46 45.83 46.40 46.21 46.56 47.37 48.22 49.42 49.88 49.86 50.30 51.31 52.85 54.77 56.34 57.86 58.58 59.28 59.96 61.11 61.99 62.69 63.82 62.58 62.32 62.43 61.64 60.32 58.71 55.82 57.35 59.52 61.53 61.99 62.70 64.98 66.76 67.00 67.13 66.83
45.13 44.98 44.59 44.44 45.29 44.78 45.22 45.96 47.10 46.84 47.89 47.93 48.67 49.47 50.09 50.29 51.94 53.87 55.62 57.05 57.80 58.31 59.36 59.98 59.59 61.31 62.37 62.59 61.84 61.21 60.81 59.01 57.23 55.81 58.81 59.76 60.58 63.37 65.15 64.76 64.89 66.07 67.26
44.23 43.84 43.47 43.56 43.45 43.57 44.36 45.42 45.85 46.04 46.56 47.12 47.33 46.81 46.93 47.88 48.47 50.59 54.10 55.08 56.67 58.39 59.08 58.94 58.68 59.10 59.39 60.91 61.62 60.35 59.44 59.45 58.82 57.66 57.35 60.63 61.80 64.30 63.33 62.98 63.64 65.29 65.49
43.02 42.66 42.46 42.25 42.64 43.23 44.20 43.91 44.42 45.47 45.61 46.11 46.80 46.12 45.97 46.95 47.51 49.22 50.69 53.14 55.22 57.63 59.20 59.48 59.31 59.10 59.15 59.54 59.63 59.84 59.58 58.81 58.82 58.06 58.07 60.10 61.96 61.47 62.43 61.39 61.10 62.72 63.60
42.05 41.89 41.84 42.33 42.70 43.20 43.14 43.28 43.83 44.94 46.00 47.17 45.26 44.94 45.41 46.14 48.98 49.85 51.06 52.36 55.42 56.98 58.23 59.10 59.73 58.94 58.85 58.98 59.91 59.75 59.54 58.61 58.84 59.01 57.83 59.52 57.63 56.12 57.80 58.64 59.52 60.55 61.57
41.13 40.72 41.80 42.60 42.95 43.07 43.33 43.23 43.29 43.19 43.95 44.65 44.06 44.15 44.78 45.87 45.09 45.70 47.05 47.78 52.27 56.46 56.54 58.07 59.10 58.03 57.56 55.47 55.29 55.69 58.77 59.71 58.37 57.61 56.93 57.47 54.54 56.03 56.53 57.97 58.59 59.30 58.52
40.32 40.93 41.66 42.67 42.61 42.74 42.69 42.79 42.54 42.23 43.05 43.66 43.65 44.10 44.09 45.28 43.87 43.89 45.96 48.64 50.59 54.58 55.91 56.19 56.62 59.06 57.43 59.30 55.21 53.32 54.31 54.07 57.02 59.87 56.51 56.26 52.89 53.92 57.26 58.74 58.94 59.17 59.05
39.95 40.54 41.71 41.74 41.35 41.63 41.76 41.46 41.83 42.33 42.58 43.05 43.74 44.15 44.26 44.94 44.02 43.00 44.33 47.22 50.40 55.01 55.61 55.57 55.73 57.18 58.14 57.36 58.00 58.03 58.77 58.15 57.29 59.00 58.90 55.67 55.45 55.40 59.00 60.85 60.33 59.75 60.53
39.40 40.03 40.84 40.71 40.00 40.73 40.75 41.75 42.19 42.29 42.56 43.21 44.01 43.98 43.60 44.06 42.89 42.20 43.52 46.16 48.09 52.47 55.47 56.22 57.44 57.94 50.81 47.10 56.15 56.26 55.18 52.05 49.39 50.39 49.17 46.13 45.73 49.03 55.71 59.78 58.81 58.36 56.26
39.01 39.55 40.41 40.34 40.30 40.42 40.92 41.39 42.41 42.79 42.96 43.92 43.92 44.52 44.61 43.97 42.88 42.02 43.26 46.37 47.87 50.86 54.57 55.93 49.80 51.94 45.10 46.55 54.13 54.59 52.72 52.49 52.77 52.75 52.02 50.31 51.94 51.13 50.17 59.23 58.37 56.16 56.20
39.40 39.82 39.51 40.06 39.98 40.25 40.95 42.27 42.90 44.13 43.98 42.68 42.77 43.81 44.50 44.21 44.34 42.05 42.50 46.39 48.31 51.49 53.75 55.73 55.58 47.10 46.01 45.28 43.82 54.75 54.15 55.88 52.49 55.21 54.03 53.82 54.00 54.10 54.03 56.18 58.13 59.36 58.68
38.54 38.86 39.24 39.97 40.35 41.17 41.64 42.94 43.99 43.37 42.05 42.26 42.67 42.43 43.30 44.25 43.39 43.52 42.14 41.97 46.83 52.00 53.60 55.93 53.79 46.92 43.64 42.37 45.98 42.35 44.56 50.90 55.64 54.52 54.29 53.30 53.60 54.01 54.91 55.15 56.86 59.67 62.89
37.57 37.79 38.96 39.67 40.24 41.26 41.57 42.23 43.27 42.69 42.05 41.92 41.59 40.71 41.37 43.75 45.91 43.80 42.25 41.70 43.01 51.13 55.93 52.65 47.80 44.56 41.77 43.19 40.34 42.55 48.07 55.05 54.21 52.86 51.92 51.95 54.07 55.64 57.42 60.40 58.71 60.32 60.38
36.60 37.29 37.96 38.54 39.57 41.35 42.57 44.17 43.08 41.86 41.39 41.20 40.98 40.87 41.82 43.67 46.67 47.28 48.42 46.16 46.19 51.66 49.92 50.83 48.09 43.89 41.56 45.57 46.90 51.27 53.25 53.00 52.01 50.72 51.12 52.30 54.70 57.38 59.82 61.11 59.21 58.66 57.89
36.12 36.80 37.57 39.01 40.15 41.00 42.68 44.12 43.19 43.28 42.11 40.98 41.20 41.57 40.96 41.86 44.28 41.67 44.55 50.98 53.61 51.41 49.30 50.00 50.18 49.53 49.63 49.94 49.82 49.67 49.61 50.38 50.96 51.33 52.94 54.90 56.24 57.02 58.82 60.33 59.31 58.47 57.88
35.28 36.22 37.38 38.29 39.76 40.78 42.79 43.76 41.71 40.24 39.83 39.04 38.39 39.32 41.93 41.28 39.14 40.77 39.45 42.75 42.38 43.82 51.07 50.67 49.76 50.04 48.76 49.52 49.85 49.91 50.96 50.19 51.85 52.33 53.02 54.02 54.93 56.77 59.13 58.67 58.55 58.20 56.78
35.23 35.64 36.74 37.81 39.45 40.88 42.30 43.69 42.08 43.36 41.27 39.75 38.22 37.24 37.79 37.97 39.32 40.47 38.69 40.92 41.30 45.91 52.44 50.52 50.07 50.11 49.01 50.24 50.49 51.45 51.50 51.75 52.62 53.61 53.62 54.13 56.73 56.53 58.29 59.32 59.25 58.75 56.33
35.46 36.79 37.42 38.30 39.21 40.27 42.35 44.50 44.01 42.83 42.22 43.32 41.00 38.04 38.63 38.54 38.97 39.27 39.27 43.94 49.25 49.30 51.53 50.49 50.07 49.82 49.81 50.32 50.77 51.53 50.37 52.17 53.26 54.95 56.35 56.93 58.28 58.24 59.00 59.24 58.23 58.54 57.08
35.22 35.71 36.51 37.47 38.72 39.91 41.33 42.56 44.65 43.71 43.45 43.67 44.92 41.60 41.91 40.21 39.50 40.01 41.48 50.42 49.21 48.47 49.79 50.35 50.98 50.42 50.67 51.17 51.82 51.07 51.37 51.79 52.28 54.07 56.24 57.51 58.36 58.79 58.47 59.50 58.66 50.36 51.82
34.59 35.23 35.49 36.58 37.31 37.92 39.04 40.47 42.48 44.52 44.04 44.05 44.27 43.32 44.52 43.87 44.80 45.87 47.62 50.61 51.15 49.68 49.57 49.70 49.89 50.60 51.45 51.63 51.05 51.28 51.25 50.94 51.75 52.54 54.31 57.06 58.29 59.11 58.68 58.98 59.29 57.02 57.31
33.79 34.36 34.29 34.98 35.53 36.10 37.24 39.37 42.94 45.89 44.99 45.08 43.91 42.52 37.30 44.85 45.62 46.37 47.19 48.99 51.04 51.65 50.97 50.53 50.61 51.44 51.57 51.26 51.35 51.32 51.57 51.87 52.45 53.59 54.78 56.75 58.33 58.72 59.44 59.65 59.42 59.12 57.86
33.22 33.10 33.21 32.91 34.19 34.26 35.01 38.06 40.11 42.23 45.43 43.84 44.39 41.71 35.35 46.57 47.39 47.89 48.15 49.07 51.78 51.67 52.31 52.59 52.14 52.40 52.23 51.86 51.90 52.11 52.93 54.33 54.92 54.91 56.80 58.27 59.09 59.28 59.70 59.56 58.04 55.22 51.55
31.98 31.72 31.52 31.67 32.39 32.79 33.48 35.38 36.68 37.52 42.65 45.35 45.34 46.09 45.49 45.75 47.02 48.14 49.04 49.89 51.79 52.01 52.60 51.86 52.01 52.15 52.54 52.61 52.69 53.49 55.35 56.95 57.47 57.14 57.19 58.92 58.95 58.85 59.19 58.27 56.05 53.03 51.50
30.85 30.19 30.08 30.32 30.66 30.89 31.66 32.47 34.20 34.15 36.70 39.62 42.09 44.48 45.51 46.15 46.47 47.25 47.96 50.39 50.37 52.00 52.08 52.21 51.96 52.50 52.55 52.47 52.60 54.15 56.98 58.34 60.36 60.71 59.90 59.51 58.46 54.78 58.70 57.17 56.37 54.90 50.58
29.72 29.22 28.82 28.63 28.90 29.03 29.66 30.46 31.40 32.90 34.20 35.57 37.02 38.92 41.63 44.37 45.77 46.61 47.44 47.95 48.32 49.33 49.81 51.44 52.08 52.51 52.76 52.87 53.28 54.25 47.62 35.86 49.85 42.80 59.19 59.34 58.46 57.97 57.92 56.87 55.79 52.61 48.98
28.62 28.34 28.09 27.90 27.92 28.09 28.13 28.52 29.09 30.28 31.39 32.78 34.39 35.34 37.37 40.01 43.71 45.31 46.57 47.54 47.78 48.14 49.05 50.00 50.45 50.82 51.51 51.84 51.91 44.59 38.25 37.10 44.25 34.59 51.41 56.73 58.66 58.90 58.04 56.35 53.99 50.81 48.46
MSLP
1012.13 1011.84 1011.61 1011.34 1011.23 1011.04 1010.81 1010.51 1010.25 1009.87 1009.54 1009.17 1008.84 1008.36 1007.70 1007.15 1006.73 1006.18 1005.72 1005.30 1004.75 1004.22 1003.85 1003.63 1003.35 1003.16 1003.36 1003.50 1003.54 1003.61 1003.68 1003.82 1003.54 1003.50 1003.57 1003.03 1000.90 1004.50 1005.19 1005.44 1005.25 1005.32 1005.28
1011.89 1011.64 1011.39 1011.22 1010.85 1010.41 1010.03 1009.61 1009.24 1009.00 1008.82 1008.66 1008.33 1007.72 1007.16 1006.66 1006.06 1005.33 1004.65 1004.13 1003.87 1003.33 1003.07 1002.88 1002.61 1002.53 1002.26 1002.38 1002.65 1002.62 1002.67 1002.76 1002.77 1002.88 1002.72 1002.63 1001.58 1002.00 1003.79 1004.77 1004.63 1004.77 1004.63
1011.51 1011.25 1010.89 1010.53 1010.12 1009.57 1009.13 1008.87 1008.70 1008.50 1008.20 1007.62 1007.14 1006.85 1006.45 1005.99 1005.47 1004.75 1003.99 1003.34 1002.99 1002.67 1002.25 1001.84 1001.57 1001.52 1001.54 1001.49 1001.29 1001.46 1001.72 1001.96 1002.18 1002.20 1002.04 1002.23 1002.18 1002.43 1003.13 1003.63 1004.31 1004.43 1004.49
1011.41 1011.10 1010.73 1010.26 1009.78 1009.35 1008.89 1008.49 1008.10 1007.76 1007.22 1006.79 1006.51 1006.23 1005.87 1005.37 1004.73 1003.92 1003.21 1002.63 1002.15 1001.68 1001.27 1000.93 1000.68 1000.34 1000.14 1000.22 1000.45 1000.30 1000.71 1000.96 1001.24 1001.54 1001.69 1001.75 1002.01 1002.73 1002.72 1002.91 1003.97 1004.05 1004.42
1011.19 1010.78 1010.36 1009.98 1009.51 1008.93 1008.40 1007.96 1007.76 1007.27 1006.66 1006.08 1005.79 1005.48 1005.15 1004.74 1003.85 1003.15 1002.62 1002.02 1001.18 1000.78 1000.37 999.93 999.68 999.24 999.13 999.06 999.19 999.42 999.69 1000.01 1000.15 1000.48 1000.84 1001.08 1001.40 1002.12 1002.00 1002.63 1003.01 1003.71 1004.30
1011.03 1010.53 1010.11 1009.60 1009.05 1008.54 1007.96 1007.59 1007.22 1006.61 1005.98 1005.55 1005.18 1004.77 1004.26 1003.74 1003.27 1002.98 1002.70 1002.04 1000.98 999.98 999.60 999.19 998.91 998.45 998.06 998.04 998.01 998.12 998.25 998.45 998.32 999.02 999.28 999.45 1000.39 1000.75 1001.32 1001.78 1002.62 1003.52 1004.20
1010.75 1010.28 1009.71 1009.13 1008.55 1008.00 1007.56 1006.99 1006.30 1005.63 1005.20 1004.74 1004.30 1003.87 1003.35 1002.85 1002.45 1002.14 1001.75 1001.29 1000.54 999.54 998.85 998.63 998.31 997.36 997.19 996.86 997.20 997.37 997.20 996.94 996.95 997.23 998.08 998.83 999.47 1000.03 1000.73 1001.45 1002.14 1002.75 1003.36
1010.38 1009.75 1009.17 1008.71 1008.13 1007.59 1007.03 1006.31 1005.63 1005.07 1004.46 1003.74 1003.17 1002.79 1002.37 1002.00 1001.50 1001.32 1001.08 1000.59 999.87 998.84 998.18 997.93 997.72 996.77 996.45 996.69 996.82 996.53 995.88 996.56 996.92 996.67 997.51 998.19 998.44 999.73 1000.08 1000.54 1001.60 1002.76 1003.47
1009.79 1009.20 1008.71 1008.29 1007.77 1007.06 1006.10 1005.36 1004.81 1004.20 1003.48 1002.76 1002.24 1001.71 1001.29 1000.94 1000.72 1000.57 1000.42 999.99 999.25 998.26 997.68 997.32 996.84 996.36 996.21 996.28 996.37 996.32 996.44 996.89 997.31 997.25 997.92 998.02 998.56 999.44 1000.02 1000.76 1001.94 1002.63 1003.24
1009.34 1008.70 1008.29 1007.93 1007.18 1006.26 1005.61 1004.96 1004.21 1003.54 1002.63 1001.83 1001.01 1000.62 1000.16 999.97 999.97 999.74 999.59 999.31 998.78 997.94 997.33 996.77 996.63 995.91 995.93 995.53 996.24 996.35 996.64 997.54 997.78 998.20 998.51 998.80 999.18 999.90 1000.28 1000.57 1001.40 1002.09 1002.62
1008.94 1008.36 1007.84 1007.20 1006.51 1005.80 1005.04 1004.25 1003.39 1002.57 1001.81 1001.09 1000.16 999.65 999.22 999.20 998.99 998.74 998.53 998.81 998.45 997.44 996.76 996.09 995.50 995.41 996.11 996.35 996.55 997.31 996.73 997.19 997.69 998.03 998.68 999.22 999.78 1000.21 1000.63 1000.89 1001.18 1001.40 1001.85
1008.53 1007.86 1007.12 1006.46 1005.84 1005.12 1004.45 1003.42 1002.53 1001.95 1001.17 1000.16 999.37 999.01 998.72 998.26 997.94 997.60 997.75 998.11 997.63 997.20 996.27 995.97 995.78 995.88 996.68 997.16 996.99 997.04 996.86 997.22 997.89 998.27 998.65 999.27 999.67 999.99 1000.34 1000.48 1000.85 1001.39 1001.89
1008.03 1007.25 1006.67 1005.94 1005.17 1004.42 1003.52 1002.53 1001.77 1001.37 1000.64 999.83 999.23 998.72 998.12 997.47 996.91 996.67 996.80 996.83 996.77 996.45 996.06 995.77 995.38 996.51 997.02 996.86 998.09 997.25 996.75 997.44 998.08 998.48 998.77 999.27 999.51 999.69 1000.07 1000.44 1000.98 1001.64 1002.16
1007.47 1006.85 1006.29 1005.58 1004.59 1003.56 1002.72 1001.80 1001.20 1000.71 1000.18 999.66 999.12 998.65 997.98 997.10 996.36 996.18 995.45 995.58 995.87 995.96 995.44 996.15 995.12 996.39 997.14 997.81 998.31 996.91 997.07 997.61 998.11 998.51 998.91 999.32 999.74 999.93 1000.16 1000.38 1000.93 1001.61 1002.17
1007.14 1006.46 1005.88 1005.09 1004.08 1003.06 1001.99 1001.10 1000.74 1000.34 1000.00 999.61 999.26 998.83 998.13 997.19 996.96 996.32 995.28 995.07 995.31 995.83 996.16 996.10 996.09 996.58 997.56 998.27 997.76 997.53 997.84 998.25 998.53 998.98 999.21 999.45 999.59 999.63 999.84 1000.20 1000.91 1001.64 1002.22
1006.87 1006.22 1005.59 1004.70 1003.58 1002.58 1001.39 1000.32 1000.02 999.87 999.41 999.12 999.11 998.94 997.90 997.44 996.98 996.09 995.31 995.06 995.29 995.43 995.87 996.29 996.67 996.88 997.76 997.80 997.59 998.16 998.38 998.50 998.85 999.21 999.41 999.40 999.62 999.68 999.81 1000.32 1000.90 1001.39 1002.11
1006.73 1006.03 1005.22 1004.31 1003.25 1002.24 1001.05 1000.07 999.49 999.00 998.62 998.49 998.51 998.45 998.11 997.55 996.69 996.04 995.32 995.17 995.41 995.70 996.02 996.71 996.62 997.26 997.94 997.83 998.02 998.30 998.62 998.90 999.18 999.40 999.53 999.73 999.85 1000.04 1000.01 1000.18 1000.78 1001.23 1002.05
1006.51 1005.73 1004.94 1004.05 1003.09 1002.00 1000.90 999.86 999.24 999.03 998.62 998.04 998.14 998.24 997.73 997.65 997.09 996.70 995.77 995.17 995.75 996.10 996.60 996.75 997.00 997.58 998.20 997.75 998.28 998.55 998.89 999.16 999.17 999.16 999.20 999.41 999.67 999.80 999.77 1000.20 1000.58 1001.04 1001.47
1006.37 1005.65 1004.91 1003.97 1002.97 1001.98 1000.96 999.96 999.09 998.80 998.52 998.11 998.04 998.01 997.60 997.22 997.19 996.70 995.53 995.22 995.93 996.64 997.08 997.15 997.41 997.93 998.07 998.12 998.57 998.89 999.06 999.06 999.08 999.26 999.25 999.30 999.51 999.86 1000.05 1000.17 1000.46 1000.73 1001.65
1006.54 1005.86 1005.03 1004.03 1002.99 1002.09 1001.16 1000.17 999.21 998.66 998.31 998.10 998.07 998.10 997.85 997.36 997.19 996.93 996.80 996.66 996.82 997.09 997.29 997.63 998.00 998.35 997.99 998.42 998.78 998.98 999.07 999.08 999.22 999.31 999.28 999.37 999.68 999.76 999.88 1000.08 1000.54 1000.90 1001.30
1006.98 1006.15 1005.38 1004.44 1003.56 1002.72 1001.74 1000.64 999.61 998.71 998.22 997.98 998.18 998.26 998.13 997.91 997.53 997.26 997.53 997.45 997.44 997.48 997.62 998.19 998.69 998.30 998.39 998.70 998.88 999.03 999.13 999.15 999.22 999.20 999.26 999.53 999.70 999.86 999.95 1000.13 1000.46 1000.58 1001.06
1007.55 1006.78 1005.91 1005.14 1004.31 1003.40 1002.50 1001.52 1000.45 999.41 998.67 998.55 998.60 998.58 998.44 998.32 998.15 998.35 997.88 998.07 997.96 998.00 998.27 998.53 998.50 998.48 998.82 998.94 998.85 999.08 999.35 999.24 999.10 999.47 999.44 999.56 999.69 999.93 1000.04 1000.17 1000.50 1000.92 1001.66
1008.33 1007.49 1006.69 1006.03 1005.25 1004.37 1003.30 1002.60 1001.72 1000.89 999.82 999.24 999.16 999.08 999.09 998.99 998.53 997.81 998.33 998.39 998.42 998.51 998.41 998.58 998.67 998.90 999.06 999.07 999.18 999.27 999.01 999.28 999.42 999.50 999.38 999.47 999.74 1000.02 1000.18 1000.37 1000.79 1001.39 1002.21
1009.27 1008.44 1007.66 1007.01 1006.35 1005.39 1004.63 1003.90 1003.21 1002.28 1001.54 1000.69 1000.14 999.97 999.89 999.92 999.87 999.88 999.32 998.41 998.74 998.68 998.63 998.71 998.95 998.92 999.00 999.13 999.25 999.55 999.38 999.34 999.40 999.27 999.52 999.57 999.73 999.93 1000.13 1000.55 1001.11 1001.76 1002.54
1010.31 1009.58 1008.76 1008.11 1007.55 1006.85 1006.01 1005.27 1004.57 1004.07 1003.41 1002.76 1002.03 1001.44 1001.00 1000.53 1000.45 1000.35 1000.11 999.79 999.42 999.20 998.96 999.12 999.10 999.07 998.98 999.15 999.40 999.38 999.20 999.41 999.14 999.16 999.49 999.63 999.80 999.91 1000.42 1000.92 1001.46 1002.07 1002.82
1011.26 1010.68 1009.99 1009.32 1008.68 1008.14 1007.44 1006.72 1006.02 1005.33 1004.73 1004.14 1003.45 1002.69 1002.01 1001.46 1000.94 1000.46 1000.06 999.80 999.65 999.33 999.22 999.30 999.19 999.16 999.12 999.30 999.48 999.41 999.25 999.45 999.38 999.27 999.43 999.85 1000.08 1000.21 1000.77 1001.16 1001.62 1002.28 1002.78
Wind_Speed
6 6 7 7 6 6 6 7 7 8 8 9 11 12 13 12 11 11 11 12 13 10 9 11 13 13 10 11 12 11 11 11 11 7 10 10 8 9 9 10 7 7 6
6 7 7 6 8 9 8 8 6 7 7 9 11 11 12 13 13 14 13 11 13 12 11 11 12 10 14 14 12 15 12 13 11 15 7 6 12 18 14 8 6 7 7
6 9 9 9 10 11 11 10 10 11 11 11 10 11 13 14 15 16 15 13 13 14 13 12 12 13 14 13 13 12 11 10 11 8 9 6 6 4 7 4 4 5 2
9 10 10 10 11 11 10 12 11 12 12 12 11 12 15 15 16 16 16 15 13 15 14 13 14 14 16 15 14 13 11 11 12 12 10 8 9 5 5 7 5 2 3
10 11 11 11 12 12 12 11 13 12 12 11 12 13 13 14 12 13 13 14 13 15 14 14 15 16 20 16 11 12 13 11 11 12 12 9 8 6 9 5 4 4 2
12 12 12 12 12 12 14 12 13 13 13 13 12 14 14 11 17 21 20 16 17 14 13 12 11 13 20 20 22 20 16 16 17 14 6 13 7 7 5 7 6 4 4
13 14 14 12 13 13 14 13 13 13 14 14 14 13 14 13 17 20 20 13 15 15 11 10 10 7 7 8 13 16 15 13 12 15 8 4 6 8 8 7 5 4 4
13 13 12 12 14 14 13 14 14 13 15 15 14 14 14 13 17 15 17 14 15 14 9 9 11 8 5 6 5 7 10 8 7 5 7 9 7 8 9 6 6 6 5
12 12 12 13 15 15 14 14 15 15 15 15 15 15 15 14 17 15 13 11 11 13 9 10 12 4 6 9 6 5 9 7 8 9 11 11 15 14 11 10 6 6 3
12 13 13 14 15 14 15 15 15 15 16 14 15 16 16 13 14 16 13 6 9 8 8 9 12 8 14 13 5 8 9 9 11 10 10 12 12 10 10 6 7 6 3
12 13 13 14 14 14 15 14 14 14 14 15 16 13 11 11 13 17 14 6 9 7 7 5 2 14 12 4 4 7 11 9 7 10 9 7 6 6 5 5 6 5 4
12 13 13 13 12 12 15 14 12 12 14 14 10 6 8 11 15 14 14 13 14 10 9 5 7 10 2 3 7 7 16 10 6 6 6 5 4 4 4 5 5 4 2
12 12 12 14 13 13 13 14 9 10 10 9 7 7 8 8 8 12 16 16 18 13 6 7 15 13 5 9 1 9 11 6 6 5 5 3 3 5 6 5 6 6 4
13 13 11 13 15 13 10 9 7 7 8 7 7 7 8 10 7 9 5 8 14 5 9 6 12 11 11 7 7 7 6 5 4 5 4 4 4 5 4 4 5 6 3
12 11 11 11 12 12 11 9 7 7 6 7 6 6 8 9 7 13 7 8 7 7 8 3 4 5 4 3 3 6 5 4 4 3 3 4 4 5 5 5 5 5 3
12 9 9 10 10 10 10 9 8 12 12 10 8 7 8 9 12 14 9 8 10 12 5 4 4 6 3 4 5 4 2 3 3 3 4 3 4 4 6 4 5 6 6
12 11 9 11 9 10 10 8 7 6 9 9 7 8 9 8 14 17 11 13 15 12 6 4 5 5 2 4 5 4 4 3 3 4 5 5 5 5 4 6 6 6 5
12 16 8 9 9 10 10 9 5 5 7 6 2 4 5 5 10 11 12 12 10 6 5 5 5 5 4 5 4 4 3 3 4 4 5 5 4 3 4 5 4 6 6
10 8 10 9 8 11 9 9 6 5 5 6 5 5 5 5 7 8 9 8 8 6 5 5 5 5 4 5 4 4 4 2 2 3 4 4 5 4 3 3 4 8 6
10 16 13 9 9 9 9 8 7 5 4 4 4 3 3 5 5 6 5 5 6 5 5 5 3 4 5 5 5 4 3 2 1 2 3 3 3 3 3 4 4 6 5
9 10 15 9 9 10 9 9 9 6 4 2 2 0 1 3 5 5 4 4 3 4 5 5 4 4 5 5 5 3 3 2 2 2 2 2 3 2 2 3 5 5 5
10 10 10 10 9 10 11 9 9 11 6 4 3 2 2 3 2 1 3 3 2 1 2 3 3 3 4 5 5 4 3 2 4 1 3 3 3 2 2 3 4 4 6
11 11 11 10 10 13 11 10 10 11 10 6 4 5 5 7 6 6 3 2 1 0 1 2 3 3 4 4 2 3 5 3 3 2 2 2 2 3 3 4 6 6 5
12 12 12 11 11 11 11 12 11 14 12 11 11 9 6 5 6 6 7 6 3 2 1 1 3 5 4 4 3 3 3 3 2 4 3 1 2 3 4 4 6 7 7
12 12 12 11 12 12 12 12 12 12 11 11 10 9 9 7 5 4 3 3 4 4 3 2 3 5 7 8 6 5 3 2 4 3 2 2 1 3 4 4 6 7 9
12 12 11 10 11 11 11 11 12 12 12 11 10 10 10 9 9 6 5 4 4 3 4 2 2 2 4 4 5 5 2 1 1 3 2 1 2 1 4 6 9 8 10
Wind_Direction
305 291 285 291 281 276 256 250 252 261 263 275 282 281 279 274 271 270 265 267 260 254 249 251 256 246 229 228 222 218 220 222 229 229 222 216 160 207 231 219 209 205 195
284 288 289 281 293 296 284 288 275 265 267 269 272 280 286 285 279 272 268 270 271 262 253 251 256 264 247 231 235 235 225 218 210 228 211 236 227 187 201 209 201 208 199
304 317 308 307 307 304 302 301 297 288 278 280 283 287 290 285 282 276 271 267 269 265 255 251 246 240 253 251 233 226 224 216 215 219 230 228 231 201 173 160 193 200 158
315 309 301 302 301 291 288 294 294 290 288 282 279 288 288 283 276 270 269 269 268 266 261 253 250 243 241 241 243 230 223 216 210 214 223 201 194 188 187 163 162 156 147
310 307 302 301 294 293 289 292 289 284 278 272 277 283 281 280 275 283 278 272 264 265 261 259 250 246 244 231 231 231 221 212 210 210 206 203 183 179 179 178 135 135 124
309 302 296 290 288 287 294 285 276 277 278 277 272 274 275 275 281 283 284 279 281 268 264 259 255 260 244 230 225 229 226 224 215 215 186 185 180 166 160 161 130 136 157
305 301 300 296 292 292 290 281 275 278 279 275 268 269 273 274 276 276 277 276 273 264 248 251 260 255 259 229 229 238 224 217 197 182 155 156 159 165 153 141 127 120 140
295 289 295 294 292 296 290 286 286 283 280 276 272 265 270 278 275 280 282 287 284 263 251 257 253 249 259 294 271 233 219 220 192 162 171 162 140 150 154 137 131 112 102
294 294 293 300 297 295 287 289 290 289 285 280 275 267 260 262 275 272 272 283 278 278 261 248 245 237 326 262 289 168 143 123 64 105 112 110 119 125 130 120 130 137 140
298 299 299 298 292 290 293 292 287 284 280 278 278 272 262 263 271 274 266 264 268 272 250 249 237 76 34 4 333 147 131 148 148 124 103 91 104 113 110 115 146 140 135
298 297 293 294 296 291 290 285 285 284 293 290 286 282 258 263 273 270 256 267 263 266 248 237 96 56 26 303 324 244 151 146 123 114 114 116 117 128 133 134 153 141 146
299 295 298 297 299 296 288 286 283 297 297 297 297 300 279 273 263 257 253 223 247 245 240 158 126 113 285 325 18 158 110 107 110 107 112 114 129 144 158 151 158 186 196
300 300 302 302 298 290 287 289 293 297 300 300 300 295 298 292 276 248 241 230 228 234 210 199 150 117 81 58 57 129 110 110 116 117 117 111 126 127 127 150 161 164 121
305 304 308 300 297 294 290 284 283 292 303 306 306 317 314 314 308 322 233 205 211 181 125 201 110 81 70 75 244 77 90 97 114 121 121 128 139 139 135 126 130 136 128
307 309 304 294 297 297 293 286 283 280 278 301 304 307 305 304 322 323 261 186 172 151 116 96 69 89 93 195 103 86 90 99 104 112 136 139 130 132 128 140 132 138 139
308 307 300 299 299 296 298 294 263 257 273 279 268 268 299 291 318 343 339 184 141 136 105 112 118 112 151 170 100 96 94 105 112 138 145 132 125 126 132 128 147 163 169
308 306 301 298 300 306 306 294 296 306 275 268 263 276 288 324 345 346 336 167 147 132 146 155 120 137 188 139 121 128 137 136 123 148 144 143 140 121 135 138 152 156 144
314 309 306 310 307 308 311 307 280 299 311 317 12 288 318 353 331 335 327 126 125 100 129 142 128 137 198 127 131 124 120 152 121 120 121 132 132 113 118 137 147 158 146
328 327 326 316 311 318 316 320 299 294 292 300 325 339 345 339 327 326 349 81 98 99 116 114 145 159 180 123 130 133 137 109 84 112 109 129 139 130 134 136 141 141 139
337 336 338 329 330 332 327 324 310 294 288 294 314 335 338 338 10 9 46 46 80 101 115 115 118 190 133 130 134 127 106 93 76 96 88 112 155 151 139 146 163 167 170
340 342 344 344 343 339 335 334 329 325 301 329 46 12 43 31 1 14 19 31 64 99 90 112 182 149 122 140 144 126 100 106 85 111 94 119 152 144 146 175 188 175 147
349 349 353 353 347 349 346 346 348 344 27 64 80 36 37 2 90 54 345 351 351 57 137 158 174 148 153 161 147 125 111 70 91 168 131 140 127 124 158 172 139 104 122
354 356 2 1 357 353 357 0 2 356 3 37 55 58 54 45 30 1 6 1 323 239 176 157 164 188 177 160 150 149 113 82 77 111 127 132 110 124 145 139 113 108 127
359 0 5 6 5 3 3 3 3 4 4 6 11 11 13 26 43 47 5 350 351 315 296 153 198 197 181 169 155 185 123 115 82 73 77 61 71 98 110 116 134 138 126
5 2 6 7 8 5 1 5 5 9 6 4 357 355 357 353 13 17 8 21 35 26 34 250 224 224 201 182 184 189 131 63 33 41 6 16 9 95 133 141 132 119 127
11 7 7 5 9 8 7 5 4 3 3 1 357 352 350 353 355 351 354 8 359 8 13 21 357 233 194 188 194 214 173 188 22 60 19 348 274 138 146 144 134 133 143